星链-11652 (STARLINK-11652)

导读 | 豆包AI

STARLINK-11652是美国SpaceX公司星链(Starlink)项目的低轨互联网通信卫星,于北京时间2025年3月18日发射入轨,是星链星座扩容计划的组成部分。该卫星将依托星链低轨星座网络,为全球提供高速低延迟的宽带互联网服务,补充覆盖盲区,增强星座服务稳定性与容量,推进全球卫星互联网组网进程。

基本信息
目录编号:
63315
目录名称:
STARLINK-11652
国际标识:
2025-057J
轨道中心:
EARTH
卫星名称:
星链-11652
卫星全名:
星链-11652 (STARLINK-11652)
卫星状态:
在轨 (已飞行410 天)
发射日期:
2025-03-18 UTC
国别 :
美国 (US)
星等 :
--
轨道信息
数据来源 国际轨道数据
星历时间: 2026-05-01T21:31:35+0800
21小时前
查看轨道信息
半长轴: 6734.656km
偏心率: 0.0005677
轨道倾角: 43.000°
近地点辐角 293.045°
升交点赤经 305.791°
平近点角 66.982°
近地点: 352.695km
远地点: 360.343km
周期: 91.671分钟
每日圈数: 15.708317
详细信息
固有亮度:
5
最大亮度:
2.5
卫星平台:
Starlink V1.0
覆盖范围:
全球
运营商:
太空探索技术公司
运营商所在国:
美国
制造商(研发单位):
太空探索技术公司
制造商所在国:
美国
使用方式:
暂无
卫星简介
Starlink 计划是 SpaceX 推出的全球卫星互联网项目,通过发射低轨道卫星,为全球尤其是偏远地区提供高速、低延迟的互联网服务。自 2019 年起,Starlink 已部署数千颗卫星,旨在缩小全球数字鸿沟,推动互联网普及。该项目还为军事、航空等行业提供通信支持,带来广泛经济效益。
2D轨道图
3D轨道图
轨道高度分析图
轨道倾角分析图
轨道综合分析图
查看轨道综合分析图